logo tempoitalia

Diretta Meteo Buckeye, Stati Uniti (USA)domenica 30 agosto ore 23:35

Mappa
Sereno 26 °C Temporale nelle vicinanze 24 Ore: T.min 26 T.max 40
Ponente Nord Km/h 24 Punto di rugiada: 21 °C Umidità: 73% Visibilità: 10 Km
Il sole sorge alle: 06:03 Il sole tramonta alle: 18:58
30 Agosto 2026 23:35 tempo osservato: Temporale nelle vicinanze Temporale nelle vicinanze 26 73 1011 vento: Nord N 24
30 Agosto 2026 23:15 tempo osservato: Temporale nelle vicinanze Temporale nelle vicinanze 26 73 1011 vento: Nord N 37
30 Agosto 2026 22:55 tempo osservato: Temporale nelle vicinanze Temporale nelle vicinanze 26 73 1011 vento: Nord N 29.6
30 Agosto 2026 22:35 tempo osservato: Temporale Temporale 27 61 1012 vento: Nord N 37
30 Agosto 2026 22:15 tempo osservato: Temporale Foschia Temporale Foschia 31 43 1012 vento: Nord N 14.8
30 Agosto 2026 21:55 tempo osservato: Temporale nelle vicinanze Temporale nelle vicinanze 30 48 1011 vento: Nord SE 14.8
30 Agosto 2026 21:35 tempo osservato: Temporale nelle vicinanze Temporale nelle vicinanze 31 48 1009 vento: Nord S/SO 14.8
30 Agosto 2026 21:15 tempo osservato: Foschia Foschia 31 48 1009 vento: Nord S/SO 22.2
30 Agosto 2026 20:55 tempo osservato: Temporale nelle vicinanze precipitazioni Temporale nelle vicinanze precipitazioni 33 41 1009 vento: Nord S 38.8
30 Agosto 2026 20:35 tempo osservato: Temporale nelle vicinanze Foschia Temporale nelle vicinanze Foschia 36 36 1009 vento: Nord S/SO 31.5
30 Agosto 2026 20:15 tempo osservato: Poco Nuvoloso Poco Nuvoloso 36 34 1008 vento: Nord S/SO 11.1
30 Agosto 2026 19:55 tempo osservato: Foschia Foschia 36 34 1008 vento: Nord S/SO 7.4
30 Agosto 2026 19:35 tempo osservato: Sereno Sereno 37 32 1008 vento: Nord S 9.3
30 Agosto 2026 19:15 tempo osservato: Sereno Sereno 36 34 1007 vento: Nord S/SO 9.3
30 Agosto 2026 18:55 tempo osservato: Sereno Sereno 37 32 1007 vento: Nord SO 9.3
30 Agosto 2026 18:35 tempo osservato: Sereno Sereno 38 29 1007 vento: Nord SO 9.3
30 Agosto 2026 18:15 tempo osservato: Sereno Sereno 38 29 1007 vento: Nord O/SO 13
30 Agosto 2026 17:55 tempo osservato: Sereno Sereno 39 27 1007 vento: Nord SO 13
30 Agosto 2026 17:35 tempo osservato: Sereno Sereno 40 24 1007 vento: Nord S 13
30 Agosto 2026 17:15 tempo osservato: Sereno Sereno 40 23 1007 vento: Nord S 11.1
30 Agosto 2026 16:55 tempo osservato: Sereno Sereno 40 24 1007 vento: Nord S/SO 16.7
30 Agosto 2026 16:35 tempo osservato: Sereno Sereno 40 24 1007 vento: Nord S 14.8
30 Agosto 2026 16:15 tempo osservato: Sereno Sereno 40 26 1008 vento: Nord S 9.3
30 Agosto 2026 15:55 tempo osservato: Sereno Sereno 40 26 1008 vento: Nord S 13
30 Agosto 2026 15:35 tempo osservato: Sereno Sereno 40 26 1008 vento: Nord N 11.1
30 Agosto 2026 15:15 tempo osservato: Sereno Sereno 39 27 1008 vento: Nord N 7.4
30 Agosto 2026 14:55 tempo osservato: Sereno Sereno 39 27 1009 vento: Nord S 13
30 Agosto 2026 14:35 tempo osservato: Sereno Sereno 39 27 1009 vento: Nord S/SE 13
30 Agosto 2026 14:15 tempo osservato: Sereno Sereno 39 27 1010 vento: Nord SE 13
30 Agosto 2026 13:55 tempo osservato: Sereno Sereno 39 27 1010 vento: Nord E/SE 9.3
30 Agosto 2026 13:35 tempo osservato: Sereno Sereno 39 27 1011 vento: Nord S/SE 13
30 Agosto 2026 13:15 tempo osservato: Sereno Sereno 38 29 1011 vento: Nord N 11.1
30 Agosto 2026 12:55 tempo osservato: Sereno Sereno 38 29 1011 vento: Nord N 9.3
30 Agosto 2026 12:35 tempo osservato: Sereno Sereno 37 32 1011 vento: Nord N 7.4
30 Agosto 2026 12:15 tempo osservato: Sereno Sereno 38 31 1012 vento: Nord S 13
30 Agosto 2026 11:55 tempo osservato: Sereno Sereno 38 31 1012 vento: Nord N 9.3
30 Agosto 2026 11:35 tempo osservato: Sereno Sereno 37 30 1012 vento: Nord S 13
30 Agosto 2026 11:15 tempo osservato: Sereno Sereno 37 30 1012 vento: Nord S/SO 14.8
30 Agosto 2026 10:55 tempo osservato: Sereno Sereno 37 30 1013 vento: Nord S/SE 13
30 Agosto 2026 10:35 tempo osservato: Sereno Sereno 36 32 1013 vento: Nord N 9.3
30 Agosto 2026 10:15 tempo osservato: Sereno Sereno 35 34 1013 vento: Nord N 0
30 Agosto 2026 09:55 tempo osservato: Sereno Sereno 35 34 1013 vento: Nord E 13
30 Agosto 2026 09:35 tempo osservato: Sereno Sereno 35 34 1013 vento: Nord E/SE 13
30 Agosto 2026 09:15 tempo osservato: Sereno Sereno 34 34 1013 vento: Nord E/SE 13
30 Agosto 2026 08:55 tempo osservato: Sereno Sereno 34 32 1013 vento: Nord E/SE 16.7
30 Agosto 2026 08:35 tempo osservato: Sereno Sereno 33 36 1013 vento: Nord E 18.5
30 Agosto 2026 08:15 tempo osservato: Sereno Sereno 33 38 1013 vento: Nord E 22.2
30 Agosto 2026 07:55 tempo osservato: Sereno Sereno 32 40 1013 vento: Nord E 27.8
30 Agosto 2026 07:35 tempo osservato: Sereno Sereno 32 40 1013 vento: Nord E 25.9
30 Agosto 2026 07:15 tempo osservato: Sereno Sereno 32 40 1012 vento: Nord E 25.9
30 Agosto 2026 06:55 tempo osservato: Sereno Sereno 31 45 1012 vento: Nord E 20.3
30 Agosto 2026 06:35 tempo osservato: Sereno Sereno 30 48 1012 vento: Nord E 16.7
30 Agosto 2026 06:15 tempo osservato: Sereno Sereno 29 54 1012 vento: Nord E/SE 14.8
30 Agosto 2026 05:55 tempo osservato: Sereno Sereno 30 48 1011 vento: Nord E/SE 14.8
30 Agosto 2026 05:35 tempo osservato: Sereno Sereno 30 48 1011 vento: Nord E/SE 13
30 Agosto 2026 05:15 tempo osservato: Sereno Sereno 30 48 1011 vento: Nord E 18.5
30 Agosto 2026 04:55 tempo osservato: Sereno Sereno 29 54 1011 vento: Nord E/SE 16.7
30 Agosto 2026 04:35 tempo osservato: Sereno Sereno 30 51 1011 vento: Nord E/SE 16.7
30 Agosto 2026 04:15 tempo osservato: Sereno Sereno 30 51 1011 vento: Nord E/SE 16.7
30 Agosto 2026 03:55 tempo osservato: Sereno Sereno 30 51 1011 vento: Nord SE 16.7
30 Agosto 2026 03:35 tempo osservato: Sereno Sereno 30 51 1011 vento: Nord E/SE 18.5
30 Agosto 2026 03:15 tempo osservato: Sereno Sereno 31 45 1010 vento: Nord SE 18.5
30 Agosto 2026 02:55 tempo osservato: Poco Nuvoloso Poco Nuvoloso 32 38 1010 vento: Nord E/SE 16.7
30 Agosto 2026 02:35 tempo osservato: Poco Nuvoloso Poco Nuvoloso 33 36 1010 vento: Nord E 24
30 Agosto 2026 02:15 tempo osservato: Poco Nuvoloso Poco Nuvoloso 33 36 1010 vento: Nord E 27.8
30 Agosto 2026 01:55 tempo osservato: Poco Nuvoloso Poco Nuvoloso 33 36 1010 vento: Nord E 25.9
30 Agosto 2026 01:35 tempo osservato: Nuvoloso Nuvoloso 33 38 1010 vento: Nord E 31.5
30 Agosto 2026 01:15 tempo osservato: Coperto Coperto 33 36 1010 vento: Nord E 31.5
30 Agosto 2026 00:55 tempo osservato: Coperto Coperto 33 38 1010 vento: Nord E 22.2
30 Agosto 2026 00:35 tempo osservato: Foschia Foschia 35 32 1010 vento: Nord E 18.5
30 Agosto 2026 00:15 tempo osservato: Foschia Foschia 34 36 1009 vento: Nord E/SE 16.7
29 Agosto 2026 23:55 tempo osservato: Foschia Foschia 35 34 1009 vento: Nord S/SO 11.1
29 Agosto 2026 23:35 tempo osservato: Foschia Foschia 35 34 1009 vento: Nord S 18.5